sat.trackr.live / text

‹ back to catalog

STARLINK-1557

NORAD 46034 · 2020-055H

PAYLOAD ACTIVE UNKNOWN

§ Identity

Operator
Country
US
Launch date
2020-08-07
Launch site
AFETR
Launch vehicle
Mass (kg)
RCS (m²)

Purposes: comms

External: N2YO · Heavens-Above · Gunter

§ Orbital elements

Epoch: 2026-05-24T06:02:16.053216Z

Period
94.11 min
Inclination
53.1610°
Eccentricity
0.0001229
Mean motion
15.30205056 rev/d
Perigee alt
474.4 km
Apogee alt
476.0 km
Semi-major
6,853.3 km
B*
1.0185e-4
RAAN
135.7335°
Arg perigee
84.9557°
Mean anomaly
275.1585°
Rev number
32,043

§ Raw data

STARLINK-15571 46034U 20055H   26144.25157469  .00002659  00000+0  10185-3 0  99942 46034  53.1610 135.7335 0001229  84.9557 275.1585 15.30205056320436

JSON: /api/v1/satellites/46034 · /tle

For live sub-satellite position, see the globe view (requires WebGL).

§ Visibility from observer

Set your observer location to see the next 7 days of passes ≥ 10°. The values pass through the URL so the page stays shareable.

No JS? Fill the form by hand. The geolocation button needs JavaScript.